Wetterdaten: Donnerstag, 15.10.2015
Datum Zeit Temp. A. Feuchte A. Luftdruck Regen Wind Richtung Richtung Sonnenschein ET UV Solar Taupunkt Windchill Windben Empfang
15.10.2015 00:00 6,8 C 96 % 1012,7 hPa 0,0 l/m 2,6 km/h (1 Bft) O-NO 71 0 min 0,000 mm 0,0 UV-I 0 W/m 6,2 C 6,8 C 6,4 km/h (2 Bft) 100,00 %
15.10.2015 00:05 6,8 C 96 % 1012,6 hPa 0,0 l/m 2,2 km/h (1 Bft) N-NO 31 0 min 0,000 mm 0,0 UV-I 0 W/m 6,2 C 6,8 C 4,8 km/h (1 Bft) 98,15 %
15.10.2015 00:10 6,8 C 96 % 1012,6 hPa 0,0 l/m 3,3 km/h (1 Bft) N-NO 13 0 min 0,000 mm 0,0 UV-I 0 W/m 6,2 C 6,8 C 8,0 km/h (2 Bft) 99,19 %
15.10.2015 00:15 6,7 C 96 % 1012,6 hPa 0,0 l/m 3,4 km/h (1 Bft) N-NO 26 0 min 0,000 mm 0,0 UV-I 0 W/m 6,1 C 6,7 C 9,7 km/h (2 Bft) 99,12 %
15.10.2015 00:20 6,7 C 95 % 1012,6 hPa 0,0 l/m 3,2 km/h (1 Bft) NO 48 0 min 0,000 mm 0,0 UV-I 0 W/m 6,0 C 6,7 C 6,4 km/h (2 Bft) 99,13 %
15.10.2015 00:25 6,6 C 95 % 1012,6 hPa 0,0 l/m 3,1 km/h (1 Bft) NO 34 0 min 0,000 mm 0,0 UV-I 0 W/m 5,9 C 6,6 C 6,4 km/h (2 Bft) 100,00 %
15.10.2015 00:30 6,6 C 95 % 1012,6 hPa 0,0 l/m 3,9 km/h (1 Bft) N-NO 25 0 min 0,000 mm 0,0 UV-I 0 W/m 5,9 C 6,6 C 6,4 km/h (2 Bft) 99,21 %
15.10.2015 00:35 6,6 C 95 % 1012,4 hPa 0,0 l/m 3,2 km/h (1 Bft) N-NO 26 0 min 0,000 mm 0,0 UV-I 0 W/m 5,9 C 6,6 C 6,4 km/h (2 Bft) 98,31 %
15.10.2015 00:40 6,6 C 95 % 1012,3 hPa 0,0 l/m 3,2 km/h (1 Bft) NO 34 0 min 0,000 mm 0,0 UV-I 0 W/m 5,9 C 6,6 C 6,4 km/h (2 Bft) 100,00 %
15.10.2015 00:45 6,5 C 95 % 1012,3 hPa 0,0 l/m 3,0 km/h (1 Bft) N-NO 19 0 min 0,000 mm 0,0 UV-I 0 W/m 5,8 C 6,5 C 6,4 km/h (2 Bft) 99,13 %
15.10.2015 00:50 6,5 C 95 % 1012,1 hPa 0,0 l/m 3,4 km/h (1 Bft) N-NO 17 0 min 0,000 mm 0,0 UV-I 0 W/m 5,8 C 6,5 C 6,4 km/h (2 Bft) 98,39 %
15.10.2015 00:55 6,5 C 95 % 1012,1 hPa 0,0 l/m 2,7 km/h (1 Bft) N-NO 19 0 min 0,000 mm 0,0 UV-I 0 W/m 5,8 C 6,5 C 4,8 km/h (1 Bft) 99,10 %
15.10.2015 01:00 6,5 C 95 % 1012,0 hPa 0,0 l/m 2,9 km/h (1 Bft) NO 34 0 min 0,000 mm 0,0 UV-I 0 W/m 5,8 C 6,5 C 4,8 km/h (1 Bft) 100,00 %
15.10.2015 01:05 6,5 C 96 % 1011,9 hPa 0,0 l/m 2,1 km/h (1 Bft) NO 37 0 min 0,000 mm 0,0 UV-I 0 W/m 5,9 C 6,5 C 4,8 km/h (1 Bft) 98,21 %
15.10.2015 01:10 6,5 C 96 % 1011,9 hPa 0,0 l/m 1,9 km/h (1 Bft) N-NO 26 0 min 0,000 mm 0,0 UV-I 0 W/m 5,9 C 6,5 C 6,4 km/h (2 Bft) 99,12 %
15.10.2015 01:15 6,5 C 96 % 1011,9 hPa 0,0 l/m 1,8 km/h (1 Bft) N-NO 31 0 min 0,000 mm 0,0 UV-I 0 W/m 5,9 C 6,5 C 4,8 km/h (1 Bft) 100,00 %
15.10.2015 01:20 6,6 C 96 % 1011,8 hPa 0,0 l/m 2,1 km/h (1 Bft) N-NO 26 0 min 0,000 mm 0,0 UV-I 0 W/m 6,0 C 6,6 C 4,8 km/h (1 Bft) 100,00 %
15.10.2015 01:25 6,6 C 96 % 1011,7 hPa 0,0 l/m 2,3 km/h (1 Bft) N-NO 25 0 min 0,000 mm 0,0 UV-I 0 W/m 6,0 C 6,6 C 4,8 km/h (1 Bft) 99,11 %
15.10.2015 01:30 6,6 C 96 % 1011,5 hPa 0,0 l/m 2,4 km/h (1 Bft) N-NO 24 0 min 0,000 mm 0,0 UV-I 0 W/m 6,0 C 6,6 C 4,8 km/h (1 Bft) 100,00 %
15.10.2015 01:35 6,6 C 95 % 1011,3 hPa 0,0 l/m 3,2 km/h (1 Bft) N-NO 17 0 min 0,000 mm 0,0 UV-I 0 W/m 5,9 C 6,6 C 6,4 km/h (2 Bft) 100,00 %
15.10.2015 01:40 6,6 C 96 % 1011,6 hPa 0,0 l/m 1,9 km/h (1 Bft) N-NO 28 0 min 0,000 mm 0,0 UV-I 0 W/m 6,0 C 6,6 C 4,8 km/h (1 Bft) 100,00 %
15.10.2015 01:45 6,6 C 95 % 1011,8 hPa 0,2 l/m 1,2 km/h (1 Bft) N-NO 28 0 min 0,000 mm 0,0 UV-I 0 W/m 5,9 C 6,6 C 3,2 km/h (1 Bft) 100,00 %
15.10.2015 01:50 6,6 C 95 % 1011,9 hPa 0,0 l/m 0,6 km/h (0 Bft) N-NO 20 0 min 0,000 mm 0,0 UV-I 0 W/m 5,9 C 6,6 C 1,6 km/h (1 Bft) 99,17 %
15.10.2015 01:55 6,7 C 96 % 1011,9 hPa 0,0 l/m 0,6 km/h (0 Bft) N-NO 20 0 min 0,000 mm 0,0 UV-I 0 W/m 6,1 C 6,7 C 1,6 km/h (1 Bft) 100,00 %
15.10.2015 02:00 6,7 C 96 % 1011,8 hPa 0,0 l/m 0,5 km/h (0 Bft) NO 38 0 min 0,000 mm 0,0 UV-I 0 W/m 6,1 C 6,7 C 3,2 km/h (1 Bft) 100,00 %
15.10.2015 02:05 6,7 C 96 % 1011,7 hPa 0,2 l/m 1,5 km/h (1 Bft) N-NO 13 0 min 0,000 mm 0,0 UV-I 0 W/m 6,1 C 6,7 C 3,2 km/h (1 Bft) 95,83 %
15.10.2015 02:10 6,7 C 96 % 1011,8 hPa 0,0 l/m 0,6 km/h (0 Bft) NO 47 0 min 0,000 mm 0,0 UV-I 0 W/m 6,1 C 6,7 C 3,2 km/h (1 Bft) 99,15 %
15.10.2015 02:15 6,7 C 96 % 1011,6 hPa 0,0 l/m 0,2 km/h (0 Bft) NO 52 0 min 0,000 mm 0,0 UV-I 0 W/m 6,1 C 6,7 C 1,6 km/h (1 Bft) 100,00 %
15.10.2015 02:20 6,7 C 96 % 1011,4 hPa 0,0 l/m 0,9 km/h (0 Bft) N-NO 17 0 min 0,000 mm 0,0 UV-I 0 W/m 6,1 C 6,7 C 3,2 km/h (1 Bft) 99,19 %
15.10.2015 02:25 6,7 C 96 % 1011,3 hPa 0,2 l/m 1,8 km/h (1 Bft) N-NO 26 0 min 0,000 mm 0,0 UV-I 0 W/m 6,1 C 6,7 C 3,2 km/h (1 Bft) 100,00 %
15.10.2015 02:30 6,7 C 97 % 1011,4 hPa 0,2 l/m 1,3 km/h (1 Bft) N-NO 28 0 min 0,000 mm 0,0 UV-I 0 W/m 6,3 C 6,7 C 3,2 km/h (1 Bft) 100,00 %
15.10.2015 02:35 6,7 C 97 % 1011,4 hPa 0,0 l/m 0,2 km/h (0 Bft) N-NO 17 0 min 0,000 mm 0,0 UV-I 0 W/m 6,3 C 6,7 C 1,6 km/h (1 Bft) 100,00 %
15.10.2015 02:40 6,7 C 97 % 1011,3 hPa 0,0 l/m 0,3 km/h (0 Bft) N-NO 17 0 min 0,000 mm 0,0 UV-I 0 W/m 6,3 C 6,7 C 1,6 km/h (1 Bft) 99,06 %
15.10.2015 02:45 6,8 C 97 % 1011,3 hPa 0,0 l/m 1,1 km/h (1 Bft) N-NO 24 0 min 0,000 mm 0,0 UV-I 0 W/m 6,4 C 6,8 C 3,2 km/h (1 Bft) 100,00 %
15.10.2015 02:50 6,8 C 97 % 1011,1 hPa 0,0 l/m 1,7 km/h (1 Bft) N-NO 18 0 min 0,000 mm 0,0 UV-I 0 W/m 6,4 C 6,8 C 3,2 km/h (1 Bft) 100,00 %
15.10.2015 02:55 6,8 C 97 % 1011,2 hPa 0,0 l/m 1,5 km/h (1 Bft) N-NO 20 0 min 0,000 mm 0,0 UV-I 0 W/m 6,4 C 6,8 C 4,8 km/h (1 Bft) 100,00 %
15.10.2015 03:00 6,8 C 97 % 1011,1 hPa 0,0 l/m 0,7 km/h (0 Bft) N-NO 20 0 min 0,000 mm 0,0 UV-I 0 W/m 6,4 C 6,8 C 3,2 km/h (1 Bft) 99,08 %
15.10.2015 03:05 6,8 C 97 % 1011,1 hPa 0,0 l/m 0,7 km/h (0 Bft) N-NO 19 0 min 0,000 mm 0,0 UV-I 0 W/m 6,4 C 6,8 C 1,6 km/h (1 Bft) 99,13 %
15.10.2015 03:10 6,8 C 97 % 1010,9 hPa 0,0 l/m 0,7 km/h (0 Bft) N-NO 22 0 min 0,000 mm 0,0 UV-I 0 W/m 6,4 C 6,8 C 3,2 km/h (1 Bft) 100,00 %
15.10.2015 03:15 6,8 C 97 % 1010,7 hPa 0,0 l/m 1,0 km/h (0 Bft) N-NO 26 0 min 0,000 mm 0,0 UV-I 0 W/m 6,4 C 6,8 C 3,2 km/h (1 Bft) 99,17 %
15.10.2015 03:20 6,8 C 97 % 1010,7 hPa 0,0 l/m 1,2 km/h (1 Bft) N 11 0 min 0,000 mm 0,0 UV-I 0 W/m 6,4 C 6,8 C 3,2 km/h (1 Bft) 99,15 %
15.10.2015 03:25 6,8 C 97 % 1010,8 hPa 0,0 l/m 1,0 km/h (0 Bft) N 9 0 min 0,000 mm 0,0 UV-I 0 W/m 6,4 C 6,8 C 3,2 km/h (1 Bft) 98,39 %
15.10.2015 03:30 6,8 C 97 % 1010,8 hPa 0,0 l/m 0,4 km/h (0 Bft) N 9 0 min 0,000 mm 0,0 UV-I 0 W/m 6,4 C 6,8 C 1,6 km/h (1 Bft) 100,00 %
15.10.2015 03:35 6,8 C 97 % 1010,7 hPa 0,0 l/m 0,1 km/h (0 Bft) N 9 0 min 0,000 mm 0,0 UV-I 0 W/m 6,4 C 6,8 C 1,6 km/h (1 Bft) 98,17 %
15.10.2015 03:40 6,8 C 97 % 1010,6 hPa 0,0 l/m 0,2 km/h (0 Bft) N 9 0 min 0,000 mm 0,0 UV-I 0 W/m 6,4 C 6,8 C 1,6 km/h (1 Bft) 99,21 %
15.10.2015 03:45 6,7 C 97 % 1010,6 hPa 0,0 l/m 0,1 km/h (0 Bft) N 9 0 min 0,000 mm 0,0 UV-I 0 W/m 6,3 C 6,7 C 1,6 km/h (1 Bft) 100,00 %
15.10.2015 03:50 6,6 C 97 % 1010,5 hPa 0,0 l/m 0,9 km/h (0 Bft) N-NO 24 0 min 0,000 mm 0,0 UV-I 0 W/m 6,2 C 6,6 C 3,2 km/h (1 Bft) 99,19 %
15.10.2015 03:55 6,6 C 97 % 1010,5 hPa 0,0 l/m 0,5 km/h (0 Bft) N-NO 24 0 min 0,000 mm 0,0 UV-I 0 W/m 6,2 C 6,6 C 1,6 km/h (1 Bft) 100,00 %
15.10.2015 04:00 6,6 C 97 % 1010,4 hPa 0,0 l/m 0,3 km/h (0 Bft) N-NO 24 0 min 0,000 mm 0,0 UV-I 0 W/m 6,2 C 6,6 C 1,6 km/h (1 Bft) 99,08 %
15.10.2015 04:05 6,6 C 97 % 1010,5 hPa 0,0 l/m 0,0 km/h (0 Bft) N-NO 24 0 min 0,000 mm 0,0 UV-I 0 W/m 6,2 C 6,6 C 0,0 km/h (0 Bft) 98,04 %
15.10.2015 04:10 6,5 C 97 % 1010,4 hPa 0,0 l/m 0,4 km/h (0 Bft) N-NO 24 0 min 0,000 mm 0,0 UV-I 0 W/m 6,1 C 6,5 C 3,2 km/h (1 Bft) 100,00 %
15.10.2015 04:15 6,5 C 97 % 1010,2 hPa 0,0 l/m 1,2 km/h (1 Bft) N-NO 22 0 min 0,000 mm 0,0 UV-I 0 W/m 6,1 C 6,5 C 3,2 km/h (1 Bft) 100,00 %
15.10.2015 04:20 6,5 C 97 % 1010,3 hPa 0,0 l/m 0,3 km/h (0 Bft) N-NO 16 0 min 0,000 mm 0,0 UV-I 0 W/m 6,1 C 6,5 C 3,2 km/h (1 Bft) 100,00 %
15.10.2015 04:25 6,5 C 97 % 1010,3 hPa 0,0 l/m 0,1 km/h (0 Bft) N-NO 16 0 min 0,000 mm 0,0 UV-I 0 W/m 6,1 C 6,5 C 1,6 km/h (1 Bft) 99,06 %
15.10.2015 04:30 6,6 C 97 % 1010,2 hPa 0,0 l/m 0,3 km/h (0 Bft) N-NO 16 0 min 0,000 mm 0,0 UV-I 0 W/m 6,2 C 6,6 C 3,2 km/h (1 Bft) 99,19 %
15.10.2015 04:35 6,6 C 97 % 1010,2 hPa 0,0 l/m 0,1 km/h (0 Bft) N-NO 16 0 min 0,000 mm 0,0 UV-I 0 W/m 6,2 C 6,6 C 1,6 km/h (1 Bft) 98,35 %
15.10.2015 04:40 6,6 C 97 % 1010,2 hPa 0,0 l/m 0,2 km/h (0 Bft) N-NO 16 0 min 0,000 mm 0,0 UV-I 0 W/m 6,2 C 6,6 C 3,2 km/h (1 Bft) 98,21 %
15.10.2015 04:45 6,6 C 97 % 1010,2 hPa 0,0 l/m 0,4 km/h (0 Bft) N-NO 16 0 min 0,000 mm 0,0 UV-I 0 W/m 6,2 C 6,6 C 1,6 km/h (1 Bft) 100,00 %
15.10.2015 04:50 6,6 C 97 % 1010,2 hPa 0,0 l/m 0,4 km/h (0 Bft) N 9 0 min 0,000 mm 0,0 UV-I 0 W/m 6,2 C 6,6 C 3,2 km/h (1 Bft) 99,11 %
15.10.2015 04:55 6,6 C 97 % 1010,1 hPa 0,0 l/m 0,0 km/h (0 Bft) N 9 0 min 0,000 mm 0,0 UV-I 0 W/m 6,2 C 6,6 C 0,0 km/h (0 Bft) 98,37 %
15.10.2015 05:00 6,6 C 97 % 1010,0 hPa 0,0 l/m 0,3 km/h (0 Bft) N 9 0 min 0,000 mm 0,0 UV-I 0 W/m 6,2 C 6,6 C 1,6 km/h (1 Bft) 98,17 %
15.10.2015 05:05 6,6 C 97 % 1010,0 hPa 0,0 l/m 0,1 km/h (0 Bft) N 9 0 min 0,000 mm 0,0 UV-I 0 W/m 6,2 C 6,6 C 1,6 km/h (1 Bft) 100,00 %
15.10.2015 05:10 6,6 C 97 % 1010,0 hPa 0,0 l/m 0,0 km/h (0 Bft) N 9 0 min 0,000 mm 0,0 UV-I 0 W/m 6,2 C 6,6 C 1,6 km/h (1 Bft) 99,10 %
15.10.2015 05:15 6,6 C 97 % 1010,1 hPa 0,0 l/m 0,0 km/h (0 Bft) N 9 0 min 0,000 mm 0,0 UV-I 0 W/m 6,2 C 6,6 C 0,0 km/h (0 Bft) 100,00 %
15.10.2015 05:20 6,6 C 97 % 1010,2 hPa 0,0 l/m 0,5 km/h (0 Bft) S 173 0 min 0,000 mm 0,0 UV-I 0 W/m 6,2 C 6,6 C 4,8 km/h (1 Bft) 98,17 %
15.10.2015 05:25 6,7 C 97 % 1010,0 hPa 0,0 l/m 0,7 km/h (0 Bft) SW 220 0 min 0,000 mm 0,0 UV-I 0 W/m 6,3 C 6,7 C 1,6 km/h (1 Bft) 97,56 %
15.10.2015 05:30 6,7 C 97 % 1009,9 hPa 0,0 l/m 0,6 km/h (0 Bft) W 271 0 min 0,000 mm 0,0 UV-I 0 W/m 6,3 C 6,7 C 3,2 km/h (1 Bft) 96,33 %
15.10.2015 05:35 6,7 C 97 % 1009,9 hPa 0,0 l/m 0,2 km/h (0 Bft) W 271 0 min 0,000 mm 0,0 UV-I 0 W/m 6,3 C 6,7 C 1,6 km/h (1 Bft) 99,22 %
15.10.2015 05:40 6,7 C 97 % 1010,0 hPa 0,0 l/m 0,0 km/h (0 Bft) W 271 0 min 0,000 mm 0,0 UV-I 0 W/m 6,3 C 6,7 C 0,0 km/h (0 Bft) 100,00 %
15.10.2015 05:45 6,7 C 97 % 1009,7 hPa 0,0 l/m 0,0 km/h (0 Bft) W 271 0 min 0,000 mm 0,0 UV-I 0 W/m 6,3 C 6,7 C 0,0 km/h (0 Bft) 98,35 %
15.10.2015 05:50 6,7 C 97 % 1009,5 hPa 0,0 l/m 0,1 km/h (0 Bft) W-NW 285 0 min 0,000 mm 0,0 UV-I 0 W/m 6,3 C 6,7 C 1,6 km/h (1 Bft) 99,06 %
15.10.2015 05:55 6,7 C 97 % 1009,5 hPa 0,2 l/m 0,2 km/h (0 Bft) N 355 0 min 0,000 mm 0,0 UV-I 0 W/m 6,3 C 6,7 C 1,6 km/h (1 Bft) 99,19 %
15.10.2015 06:00 6,7 C 97 % 1009,5 hPa 0,0 l/m 0,0 km/h (0 Bft) N 355 0 min 0,000 mm 0,0 UV-I 0 W/m 6,3 C 6,7 C 1,6 km/h (1 Bft) 99,17 %
15.10.2015 06:05 6,7 C 97 % 1009,7 hPa 0,0 l/m 0,4 km/h (0 Bft) W-NW 284 0 min 0,000 mm 0,0 UV-I 0 W/m 6,3 C 6,7 C 3,2 km/h (1 Bft) 100,00 %
15.10.2015 06:10 6,7 C 97 % 1009,7 hPa 0,0 l/m 0,2 km/h (0 Bft) W-NW 284 0 min 0,000 mm 0,0 UV-I 0 W/m 6,3 C 6,7 C 1,6 km/h (1 Bft) 100,00 %
15.10.2015 06:15 6,7 C 97 % 1009,6 hPa 0,0 l/m 0,2 km/h (0 Bft) W 265 0 min 0,000 mm 0,0 UV-I 0 W/m 6,3 C 6,7 C 1,6 km/h (1 Bft) 100,00 %
15.10.2015 06:20 6,7 C 97 % 1009,5 hPa 0,2 l/m 0,8 km/h (0 Bft) W 261 0 min 0,000 mm 0,0 UV-I 0 W/m 6,3 C 6,7 C 3,2 km/h (1 Bft) 98,20 %
15.10.2015 06:25 6,7 C 97 % 1009,7 hPa 0,0 l/m 2,2 km/h (1 Bft) SW 232 0 min 0,000 mm 0,0 UV-I 0 W/m 6,3 C 6,7 C 4,8 km/h (1 Bft) 100,00 %
15.10.2015 06:30 6,7 C 97 % 1009,7 hPa 0,0 l/m 1,5 km/h (1 Bft) W 273 0 min 0,000 mm 0,0 UV-I 0 W/m 6,3 C 6,7 C 3,2 km/h (1 Bft) 100,00 %
15.10.2015 06:35 6,7 C 97 % 1009,7 hPa 0,0 l/m 3,5 km/h (1 Bft) W-SW 256 0 min 0,000 mm 0,0 UV-I 0 W/m 6,3 C 6,7 C 8,0 km/h (2 Bft) 99,13 %
15.10.2015 06:40 6,7 C 97 % 1009,5 hPa 0,2 l/m 2,3 km/h (1 Bft) W 275 0 min 0,000 mm 0,0 UV-I 0 W/m 6,3 C 6,7 C 6,4 km/h (2 Bft) 98,26 %
15.10.2015 06:45 6,7 C 97 % 1009,5 hPa 0,0 l/m 2,9 km/h (1 Bft) W 261 0 min 0,000 mm 0,0 UV-I 0 W/m 6,3 C 6,7 C 4,8 km/h (1 Bft) 100,00 %
15.10.2015 06:50 6,7 C 97 % 1009,5 hPa 0,0 l/m 1,8 km/h (1 Bft) W 271 0 min 0,000 mm 0,0 UV-I 0 W/m 6,3 C 6,7 C 4,8 km/h (1 Bft) 100,00 %
15.10.2015 06:55 6,7 C 97 % 1009,6 hPa 0,0 l/m 1,5 km/h (1 Bft) SW 232 0 min 0,000 mm 0,0 UV-I 0 W/m 6,3 C 6,7 C 3,2 km/h (1 Bft) 99,08 %
15.10.2015 07:00 6,6 C 97 % 1009,5 hPa 0,0 l/m 2,7 km/h (1 Bft) W 275 0 min 0,000 mm 0,0 UV-I 0 W/m 6,2 C 6,6 C 4,8 km/h (1 Bft) 99,17 %
15.10.2015 07:05 6,6 C 97 % 1009,5 hPa 0,0 l/m 0,5 km/h (0 Bft) W-SW 253 0 min 0,000 mm 0,0 UV-I 0 W/m 6,2 C 6,6 C 3,2 km/h (1 Bft) 100,00 %
15.10.2015 07:10 6,6 C 97 % 1009,6 hPa 0,0 l/m 1,8 km/h (1 Bft) SW 225 0 min 0,000 mm 0,0 UV-I 0 W/m 6,2 C 6,6 C 4,8 km/h (1 Bft) 100,00 %
15.10.2015 07:15 6,6 C 97 % 1009,5 hPa 0,0 l/m 3,0 km/h (1 Bft) NW 307 0 min 0,000 mm 0,0 UV-I 0 W/m 6,2 C 6,6 C 4,8 km/h (1 Bft) 99,11 %
15.10.2015 07:20 6,6 C 97 % 1009,5 hPa 0,0 l/m 2,3 km/h (1 Bft) W-SW 257 0 min 0,000 mm 0,0 UV-I 0 W/m 6,2 C 6,6 C 6,4 km/h (2 Bft) 98,35 %
15.10.2015 07:25 6,6 C 97 % 1009,5 hPa 0,0 l/m 1,1 km/h (1 Bft) SW 232 0 min 0,000 mm 0,0 UV-I 0 W/m 6,2 C 6,6 C 3,2 km/h (1 Bft) 100,00 %
15.10.2015 07:30 6,6 C 97 % 1009,5 hPa 0,0 l/m 0,7 km/h (0 Bft) SW 234 0 min 0,000 mm 0,0 UV-I 0 W/m 6,2 C 6,6 C 3,2 km/h (1 Bft) 99,17 %
15.10.2015 07:35 6,6 C 97 % 1009,4 hPa 0,0 l/m 0,6 km/h (0 Bft) W 260 0 min 0,000 mm 0,0 UV-I 0 W/m 6,2 C 6,6 C 3,2 km/h (1 Bft) 99,08 %
15.10.2015 07:40 6,6 C 97 % 1009,4 hPa 0,0 l/m 0,8 km/h (0 Bft) W 260 0 min 0,000 mm 0,0 UV-I 0 W/m 6,2 C 6,6 C 1,6 km/h (1 Bft) 100,00 %
15.10.2015 07:45 6,6 C 97 % 1009,3 hPa 0,0 l/m 1,3 km/h (1 Bft) W 272 0 min 0,000 mm 0,0 UV-I 0 W/m 6,2 C 6,6 C 3,2 km/h (1 Bft) 98,17 %
15.10.2015 07:50 6,6 C 97 % 1009,3 hPa 0,0 l/m 1,1 km/h (1 Bft) W-SW 253 0 min 0,000 mm 0,0 UV-I 0 W/m 6,2 C 6,6 C 3,2 km/h (1 Bft) 98,26 %
15.10.2015 07:55 6,6 C 97 % 1009,3 hPa 0,0 l/m 2,6 km/h (1 Bft) SW 234 0 min 0,000 mm 0,0 UV-I 0 W/m 6,2 C 6,6 C 4,8 km/h (1 Bft) 100,00 %
15.10.2015 08:00 6,6 C 97 % 1009,3 hPa 0,0 l/m 2,8 km/h (1 Bft) W-SW 250 0 min 0,000 mm 0,0 UV-I 3 W/m 6,2 C 6,6 C 4,8 km/h (1 Bft) 100,00 %
15.10.2015 08:05 6,6 C 97 % 1009,3 hPa 0,0 l/m 2,3 km/h (1 Bft) W-SW 250 0 min 0,000 mm 0,0 UV-I 5 W/m 6,2 C 6,6 C 4,8 km/h (1 Bft) 99,11 %
15.10.2015 08:10 6,6 C 97 % 1009,5 hPa 0,0 l/m 2,0 km/h (1 Bft) SW 216 0 min 0,000 mm 0,0 UV-I 5 W/m 6,2 C 6,6 C 4,8 km/h (1 Bft) 99,21 %
15.10.2015 08:15 6,6 C 97 % 1009,4 hPa 0,0 l/m 2,2 km/h (1 Bft) W 277 0 min 0,000 mm 0,0 UV-I 5 W/m 6,2 C 6,6 C 4,8 km/h (1 Bft) 100,00 %
15.10.2015 08:20 6,6 C 97 % 1009,4 hPa 0,0 l/m 2,3 km/h (1 Bft) W 273 0 min 0,000 mm 0,0 UV-I 5 W/m 6,2 C 6,6 C 4,8 km/h (1 Bft) 96,49 %
15.10.2015 08:25 6,6 C 97 % 1009,4 hPa 0,0 l/m 3,1 km/h (1 Bft) W-SW 258 0 min 0,000 mm 0,0 UV-I 10 W/m 6,2 C 6,6 C 6,4 km/h (2 Bft) 99,19 %
15.10.2015 08:30 6,6 C 97 % 1009,8 hPa 0,0 l/m 3,5 km/h (1 Bft) W-SW 248 0 min 0,000 mm 0,0 UV-I 17 W/m 6,2 C 6,6 C 6,4 km/h (2 Bft) 100,00 %
15.10.2015 08:35 6,6 C 97 % 1009,8 hPa 0,0 l/m 3,8 km/h (1 Bft) NW 304 0 min 0,000 mm 0,0 UV-I 20 W/m 6,2 C 6,6 C 9,7 km/h (2 Bft) 100,00 %
15.10.2015 08:40 6,7 C 97 % 1009,8 hPa 0,0 l/m 3,3 km/h (1 Bft) W-NW 292 0 min 0,000 mm 0,0 UV-I 12 W/m 6,3 C 6,7 C 6,4 km/h (2 Bft) 100,00 %
15.10.2015 08:45 6,7 C 97 % 1009,9 hPa 0,0 l/m 2,0 km/h (1 Bft) W-SW 252 0 min 0,000 mm 0,0 UV-I 12 W/m 6,3 C 6,7 C 4,8 km/h (1 Bft) 100,00 %
15.10.2015 08:50 6,7 C 97 % 1009,9 hPa 0,0 l/m 3,7 km/h (1 Bft) W-NW 301 0 min 0,000 mm 0,0 UV-I 12 W/m 6,3 C 6,7 C 9,7 km/h (2 Bft) 100,00 %
15.10.2015 08:55 6,6 C 97 % 1009,9 hPa 0,0 l/m 3,5 km/h (1 Bft) W-SW 254 0 min 0,000 mm 0,0 UV-I 12 W/m 6,2 C 6,6 C 6,4 km/h (2 Bft) 99,11 %
15.10.2015 09:00 6,6 C 97 % 1010,0 hPa 0,0 l/m 2,7 km/h (1 Bft) W-NW 282 0 min 0,000 mm 0,0 UV-I 13 W/m 6,2 C 6,6 C 4,8 km/h (1 Bft) 97,56 %
15.10.2015 09:05 6,7 C 97 % 1010,1 hPa 0,0 l/m 2,2 km/h (1 Bft) W 259 0 min 0,000 mm 0,0 UV-I 18 W/m 6,3 C 6,7 C 4,8 km/h (1 Bft) 100,00 %
15.10.2015 09:10 6,7 C 97 % 1010,2 hPa 0,0 l/m 4,5 km/h (1 Bft) W-NW 288 0 min 0,000 mm 0,0 UV-I 26 W/m 6,3 C 6,7 C 11,3 km/h (2 Bft) 98,39 %
15.10.2015 09:15 6,7 C 97 % 1010,0 hPa 0,0 l/m 2,6 km/h (1 Bft) W-NW 289 0 min 0,000 mm 0,0 UV-I 35 W/m 6,3 C 6,7 C 6,4 km/h (2 Bft) 99,12 %
15.10.2015 09:20 6,7 C 97 % 1010,0 hPa 0,0 l/m 2,2 km/h (1 Bft) W 277 0 min 0,000 mm 0,0 UV-I 51 W/m 6,3 C 6,7 C 4,8 km/h (1 Bft) 100,00 %
15.10.2015 09:25 6,8 C 97 % 1010,0 hPa 0,0 l/m 3,4 km/h (1 Bft) SW 235 0 min 0,000 mm 0,0 UV-I 44 W/m 6,4 C 6,8 C 9,7 km/h (2 Bft) 98,26 %
15.10.2015 09:30 6,8 C 97 % 1010,2 hPa 0,0 l/m 3,1 km/h (1 Bft) S-SW 211 0 min 0,000 mm 0,0 UV-I 37 W/m 6,4 C 6,8 C 6,4 km/h (2 Bft) 100,00 %
15.10.2015 09:35 6,8 C 96 % 1010,3 hPa 0,0 l/m 3,6 km/h (1 Bft) W 274 0 min 0,000 mm 0,0 UV-I 40 W/m 6,2 C 6,8 C 6,4 km/h (2 Bft) 99,11 %
15.10.2015 09:40 6,8 C 96 % 1010,4 hPa 0,0 l/m 3,4 km/h (1 Bft) W 273 0 min 0,000 mm 0,0 UV-I 16 W/m 6,2 C 6,8 C 6,4 km/h (2 Bft) 100,00 %
15.10.2015 09:45 6,8 C 96 % 1010,5 hPa 0,0 l/m 3,2 km/h (1 Bft) SW 230 0 min 0,000 mm 0,0 UV-I 19 W/m 6,2 C 6,8 C 8,0 km/h (2 Bft) 99,11 %
15.10.2015 09:50 6,8 C 96 % 1010,5 hPa 0,0 l/m 3,8 km/h (1 Bft) W 268 0 min 0,000 mm 0,0 UV-I 38 W/m 6,2 C 6,8 C 6,4 km/h (2 Bft) 100,00 %
15.10.2015 09:55 6,8 C 96 % 1010,5 hPa 0,0 l/m 3,6 km/h (1 Bft) SW 233 0 min 0,000 mm 0,0 UV-I 59 W/m 6,2 C 6,8 C 6,4 km/h (2 Bft) 99,19 %
15.10.2015 10:00 6,9 C 96 % 1010,4 hPa 0,0 l/m 3,6 km/h (1 Bft) W-SW 254 0 min 0,000 mm 0,0 UV-I 64 W/m 6,3 C 6,9 C 6,4 km/h (2 Bft) 98,26 %
15.10.2015 10:05 7,0 C 97 % 1010,6 hPa 0,0 l/m 2,4 km/h (1 Bft) W 272 0 min 0,025 mm 0,0 UV-I 63 W/m 6,6 C 7,0 C 4,8 km/h (1 Bft) 100,00 %
15.10.2015 10:10 7,0 C 96 % 1010,5 hPa 0,0 l/m 2,6 km/h (1 Bft) NW 306 0 min 0,000 mm 0,0 UV-I 81 W/m 6,4 C 7,0 C 4,8 km/h (1 Bft) 98,25 %
15.10.2015 10:15 7,1 C 97 % 1010,6 hPa 0,0 l/m 3,3 km/h (1 Bft) W 281 0 min 0,000 mm 0,0 UV-I 84 W/m 6,7 C 7,1 C 8,0 km/h (2 Bft) 99,19 %
15.10.2015 10:20 7,1 C 96 % 1010,6 hPa 0,0 l/m 3,2 km/h (1 Bft) W 279 0 min 0,000 mm 0,1 UV-I 78 W/m 6,5 C 7,1 C 9,7 km/h (2 Bft) 100,00 %
15.10.2015 10:25 7,2 C 97 % 1010,7 hPa 0,0 l/m 2,7 km/h (1 Bft) W-SW 257 0 min 0,000 mm 0,3 UV-I 97 W/m 6,8 C 7,2 C 4,8 km/h (1 Bft) 99,19 %
15.10.2015 10:30 7,3 C 96 % 1010,8 hPa 0,0 l/m 2,3 km/h (1 Bft) S-SW 212 0 min 0,000 mm 0,6 UV-I 98 W/m 6,7 C 7,3 C 4,8 km/h (1 Bft) 97,32 %
15.10.2015 10:35 7,4 C 96 % 1010,8 hPa 0,0 l/m 3,4 km/h (1 Bft) W-NW 294 0 min 0,000 mm 0,6 UV-I 92 W/m 6,8 C 7,4 C 6,4 km/h (2 Bft) 98,41 %
15.10.2015 10:40 7,5 C 95 % 1010,8 hPa 0,0 l/m 3,8 km/h (1 Bft) W 267 0 min 0,000 mm 0,7 UV-I 114 W/m 6,8 C 7,5 C 8,0 km/h (2 Bft) 99,08 %
15.10.2015 10:45 7,5 C 94 % 1010,6 hPa 0,0 l/m 4,2 km/h (1 Bft) W 261 0 min 0,000 mm 0,6 UV-I 85 W/m 6,6 C 7,5 C 9,7 km/h (2 Bft) 100,00 %
15.10.2015 10:50 7,6 C 95 % 1010,4 hPa 0,0 l/m 2,6 km/h (1 Bft) NW 322 0 min 0,000 mm 0,8 UV-I 146 W/m 6,9 C 7,6 C 6,4 km/h (2 Bft) 100,00 %
15.10.2015 10:55 7,7 C 95 % 1010,7 hPa 0,0 l/m 2,7 km/h (1 Bft) W 275 0 min 0,000 mm 0,8 UV-I 131 W/m 7,0 C 7,7 C 6,4 km/h (2 Bft) 100,00 %
15.10.2015 11:00 7,8 C 94 % 1010,8 hPa 0,0 l/m 1,4 km/h (1 Bft) W 275 0 min 0,051 mm 0,9 UV-I 158 W/m 6,9 C 7,8 C 3,2 km/h (1 Bft) 98,35 %
15.10.2015 11:05 7,9 C 93 % 1010,8 hPa 0,0 l/m 0,9 km/h (0 Bft) N 350 0 min 0,000 mm 0,8 UV-I 152 W/m 6,8 C 7,9 C 3,2 km/h (1 Bft) 99,19 %
15.10.2015 11:10 8,1 C 94 % 1010,4 hPa 0,0 l/m 1,8 km/h (1 Bft) N-NW 329 0 min 0,000 mm 1,0 UV-I 186 W/m 7,2 C 8,1 C 3,2 km/h (1 Bft) 100,00 %
15.10.2015 11:15 8,1 C 94 % 1010,3 hPa 0,0 l/m 1,7 km/h (1 Bft) W-SW 244 0 min 0,000 mm 1,1 UV-I 182 W/m 7,2 C 8,1 C 4,8 km/h (1 Bft) 99,11 %
15.10.2015 11:20 8,2 C 93 % 1010,2 hPa 0,0 l/m 1,8 km/h (1 Bft) SW 236 0 min 0,000 mm 1,0 UV-I 196 W/m 7,1 C 8,2 C 6,4 km/h (2 Bft) 99,21 %
15.10.2015 11:25 8,2 C 92 % 1010,2 hPa 0,0 l/m 2,4 km/h (1 Bft) W-SW 250 0 min 0,000 mm 1,1 UV-I 193 W/m 7,0 C 8,2 C 6,4 km/h (2 Bft) 98,26 %
15.10.2015 11:30 8,1 C 93 % 1010,0 hPa 0,0 l/m 2,9 km/h (1 Bft) S-SW 196 0 min 0,000 mm 1,0 UV-I 144 W/m 7,0 C 8,1 C 6,4 km/h (2 Bft) 100,00 %
15.10.2015 11:35 8,2 C 92 % 1010,5 hPa 0,0 l/m 3,6 km/h (1 Bft) W 259 0 min 0,000 mm 0,6 UV-I 108 W/m 7,0 C 8,2 C 6,4 km/h (2 Bft) 99,11 %
15.10.2015 11:40 8,1 C 92 % 1010,4 hPa 0,0 l/m 2,0 km/h (1 Bft) W-NW 291 0 min 0,000 mm 0,1 UV-I 54 W/m 6,9 C 8,1 C 4,8 km/h (1 Bft) 100,00 %
15.10.2015 11:45 8,0 C 93 % 1010,3 hPa 0,0 l/m 1,8 km/h (1 Bft) W 266 0 min 0,000 mm 0,2 UV-I 55 W/m 6,9 C 8,0 C 8,0 km/h (2 Bft) 99,19 %
15.10.2015 11:50 7,9 C 92 % 1010,4 hPa 0,0 l/m 1,8 km/h (1 Bft) W-SW 254 0 min 0,000 mm 0,0 UV-I 42 W/m 6,7 C 7,9 C 4,8 km/h (1 Bft) 100,00 %
15.10.2015 11:55 7,9 C 93 % 1010,5 hPa 0,0 l/m 0,9 km/h (0 Bft) W-NW 294 0 min 0,000 mm 0,6 UV-I 81 W/m 6,8 C 7,9 C 4,8 km/h (1 Bft) 99,11 %
15.10.2015 12:00 8,1 C 92 % 1010,7 hPa 0,0 l/m 2,3 km/h (1 Bft) W-SW 240 0 min 0,051 mm 0,6 UV-I 88 W/m 6,9 C 8,1 C 6,4 km/h (2 Bft) 99,12 %
15.10.2015 12:05 8,1 C 92 % 1010,4 hPa 0,0 l/m 2,0 km/h (1 Bft) NW 311 0 min 0,000 mm 0,6 UV-I 96 W/m 6,9 C 8,1 C 4,8 km/h (1 Bft) 100,00 %
15.10.2015 12:10 8,1 C 92 % 1010,4 hPa 0,0 l/m 1,3 km/h (1 Bft) W 273 0 min 0,000 mm 0,6 UV-I 93 W/m 6,9 C 8,1 C 3,2 km/h (1 Bft) 99,15 %
15.10.2015 12:15 8,1 C 92 % 1010,3 hPa 0,0 l/m 1,0 km/h (0 Bft) W-NW 288 0 min 0,000 mm 0,2 UV-I 80 W/m 6,9 C 8,1 C 4,8 km/h (1 Bft) 100,00 %
15.10.2015 12:20 8,2 C 93 % 1010,5 hPa 0,0 l/m 1,2 km/h (1 Bft) W-SW 244 0 min 0,000 mm 0,7 UV-I 115 W/m 7,1 C 8,2 C 3,2 km/h (1 Bft) 99,17 %
15.10.2015 12:25 8,2 C 91 % 1010,5 hPa 0,0 l/m 2,1 km/h (1 Bft) W 279 0 min 0,000 mm 0,8 UV-I 142 W/m 6,8 C 8,2 C 4,8 km/h (1 Bft) 100,00 %
15.10.2015 12:30 8,4 C 92 % 1010,3 hPa 0,0 l/m 1,3 km/h (1 Bft) W-NW 283 0 min 0,000 mm 1,2 UV-I 240 W/m 7,2 C 8,4 C 3,2 km/h (1 Bft) 99,17 %
15.10.2015 12:35 8,6 C 91 % 1010,4 hPa 0,0 l/m 1,1 km/h (1 Bft) N-NW 338 0 min 0,000 mm 1,4 UV-I 246 W/m 7,2 C 8,6 C 4,8 km/h (1 Bft) 99,11 %
15.10.2015 12:40 8,8 C 90 % 1010,4 hPa 0,0 l/m 1,6 km/h (1 Bft) N 355 0 min 0,000 mm 1,6 UV-I 288 W/m 7,3 C 8,8 C 4,8 km/h (1 Bft) 100,00 %
15.10.2015 12:45 8,6 C 89 % 1010,5 hPa 0,0 l/m 3,2 km/h (1 Bft) W 263 0 min 0,000 mm 1,3 UV-I 228 W/m 6,9 C 8,6 C 6,4 km/h (2 Bft) 98,39 %
15.10.2015 12:50 8,7 C 90 % 1010,7 hPa 0,0 l/m 2,5 km/h (1 Bft) W-NW 286 0 min 0,000 mm 1,2 UV-I 194 W/m 7,2 C 8,7 C 6,4 km/h (2 Bft) 99,08 %
15.10.2015 12:55 8,7 C 90 % 1010,6 hPa 0,0 l/m 1,2 km/h (1 Bft) N 360 0 min 0,000 mm 1,0 UV-I 158 W/m 7,2 C 8,7 C 3,2 km/h (1 Bft) 100,00 %
15.10.2015 13:00 8,7 C 89 % 1010,5 hPa 0,0 l/m 1,7 km/h (1 Bft) W 279 0 min 0,076 mm 1,3 UV-I 190 W/m 7,0 C 8,7 C 6,4 km/h (2 Bft) 99,17 %
15.10.2015 13:05 8,8 C 90 % 1010,7 hPa 0,0 l/m 1,8 km/h (1 Bft) W 274 0 min 0,000 mm 1,3 UV-I 193 W/m 7,3 C 8,8 C 4,8 km/h (1 Bft) 98,25 %
15.10.2015 13:10 8,8 C 89 % 1010,7 hPa 0,0 l/m 2,6 km/h (1 Bft) W-NW 303 0 min 0,000 mm 1,0 UV-I 131 W/m 7,1 C 8,8 C 6,4 km/h (2 Bft) 100,00 %
15.10.2015 13:15 8,7 C 89 % 1010,6 hPa 0,0 l/m 2,6 km/h (1 Bft) W 281 0 min 0,000 mm 1,0 UV-I 135 W/m 7,0 C 8,7 C 4,8 km/h (1 Bft) 100,00 %
15.10.2015 13:20 8,7 C 89 % 1010,8 hPa 0,0 l/m 1,7 km/h (1 Bft) W 263 0 min 0,000 mm 1,0 UV-I 147 W/m 7,0 C 8,7 C 4,8 km/h (1 Bft) 99,12 %
15.10.2015 13:25 8,8 C 90 % 1010,8 hPa 0,0 l/m 3,2 km/h (1 Bft) NW 317 0 min 0,000 mm 1,1 UV-I 176 W/m 7,3 C 8,8 C 8,0 km/h (2 Bft) 99,17 %
15.10.2015 13:30 9,1 C 90 % 1010,7 hPa 0,0 l/m 1,2 km/h (1 Bft) W 272 0 min 0,000 mm 1,0 UV-I 190 W/m 7,5 C 9,1 C 3,2 km/h (1 Bft) 100,00 %
15.10.2015 13:35 9,0 C 90 % 1010,7 hPa 0,0 l/m 1,8 km/h (1 Bft) W 275 0 min 0,000 mm 0,2 UV-I 76 W/m 7,4 C 9,0 C 4,8 km/h (1 Bft) 99,17 %
15.10.2015 13:40 8,7 C 89 % 1010,6 hPa 0,0 l/m 2,4 km/h (1 Bft) NW 323 0 min 0,000 mm 0,0 UV-I 48 W/m 7,0 C 8,7 C 6,4 km/h (2 Bft) 99,17 %
15.10.2015 13:45 8,6 C 90 % 1010,8 hPa 0,0 l/m 2,9 km/h (1 Bft) SW 235 0 min 0,000 mm 0,0 UV-I 45 W/m 7,1 C 8,6 C 8,0 km/h (2 Bft) 100,00 %
15.10.2015 13:50 8,5 C 90 % 1010,6 hPa 0,0 l/m 2,7 km/h (1 Bft) W 281 0 min 0,000 mm 0,0 UV-I 55 W/m 7,0 C 8,5 C 6,4 km/h (2 Bft) 98,31 %
15.10.2015 13:55 8,5 C 92 % 1010,6 hPa 0,0 l/m 2,2 km/h (1 Bft) W 265 0 min 0,000 mm 0,3 UV-I 82 W/m 7,3 C 8,5 C 4,8 km/h (1 Bft) 99,17 %
15.10.2015 14:00 8,5 C 91 % 1010,6 hPa 0,0 l/m 2,7 km/h (1 Bft) W-NW 292 0 min 0,051 mm 0,0 UV-I 64 W/m 7,1 C 8,5 C 6,4 km/h (2 Bft) 98,20 %
15.10.2015 14:05 8,4 C 91 % 1010,6 hPa 0,0 l/m 3,2 km/h (1 Bft) W 262 0 min 0,000 mm 0,0 UV-I 49 W/m 7,0 C 8,4 C 11,3 km/h (2 Bft) 99,13 %
15.10.2015 14:10 8,4 C 92 % 1010,5 hPa 0,0 l/m 2,0 km/h (1 Bft) SW 236 0 min 0,000 mm 0,1 UV-I 69 W/m 7,2 C 8,4 C 4,8 km/h (1 Bft) 99,17 %
15.10.2015 14:15 8,6 C 91 % 1010,6 hPa 0,0 l/m 2,0 km/h (1 Bft) W 262 0 min 0,000 mm 0,6 UV-I 116 W/m 7,2 C 8,6 C 6,4 km/h (2 Bft) 97,44 %
15.10.2015 14:20 8,7 C 91 % 1010,5 hPa 0,0 l/m 2,4 km/h (1 Bft) W 267 0 min 0,000 mm 0,8 UV-I 186 W/m 7,3 C 8,7 C 9,7 km/h (2 Bft) 99,11 %
15.10.2015 14:25 8,9 C 90 % 1010,3 hPa 0,0 l/m 2,2 km/h (1 Bft) W-SW 257 0 min 0,000 mm 1,1 UV-I 264 W/m 7,4 C 8,9 C 4,8 km/h (1 Bft) 98,31 %
15.10.2015 14:30 9,1 C 90 % 1010,4 hPa 0,0 l/m 1,9 km/h (1 Bft) W 268 0 min 0,000 mm 1,0 UV-I 219 W/m 7,5 C 9,1 C 4,8 km/h (1 Bft) 100,00 %
15.10.2015 14:35 9,2 C 89 % 1010,6 hPa 0,0 l/m 1,6 km/h (1 Bft) W-SW 244 0 min 0,000 mm 0,8 UV-I 170 W/m 7,5 C 9,2 C 6,4 km/h (2 Bft) 100,00 %
15.10.2015 14:40 9,1 C 88 % 1010,7 hPa 0,0 l/m 2,3 km/h (1 Bft) W-SW 257 0 min 0,000 mm 0,5 UV-I 126 W/m 7,2 C 9,1 C 6,4 km/h (2 Bft) 99,10 %
15.10.2015 14:45 8,9 C 89 % 1010,9 hPa 0,0 l/m 3,0 km/h (1 Bft) W-SW 250 0 min 0,000 mm 0,1 UV-I 86 W/m 7,2 C 8,9 C 6,4 km/h (2 Bft) 100,00 %
15.10.2015 14:50 8,9 C 89 % 1011,1 hPa 0,0 l/m 4,6 km/h (1 Bft) W 281 0 min 0,000 mm 0,0 UV-I 63 W/m 7,2 C 8,9 C 11,3 km/h (2 Bft) 99,19 %
15.10.2015 14:55 8,8 C 89 % 1011,1 hPa 0,0 l/m 4,4 km/h (1 Bft) W-NW 298 0 min 0,000 mm 0,0 UV-I 63 W/m 7,1 C 8,8 C 11,3 km/h (2 Bft) 99,03 %
15.10.2015 15:00 8,7 C 90 % 1010,9 hPa 0,0 l/m 2,5 km/h (1 Bft) W-NW 297 0 min 0,051 mm 0,0 UV-I 84 W/m 7,2 C 8,7 C 4,8 km/h (1 Bft) 97,87 %
15.10.2015 15:05 8,7 C 90 % 1011,0 hPa 0,0 l/m 2,8 km/h (1 Bft) S-SW 196 0 min 0,000 mm 0,1 UV-I 86 W/m 7,2 C 8,7 C 6,4 km/h (2 Bft) 100,00 %
15.10.2015 15:10 8,6 C 89 % 1011,0 hPa 0,0 l/m 3,8 km/h (1 Bft) W-SW 256 0 min 0,000 mm 0,0 UV-I 49 W/m 6,9 C 8,6 C 11,3 km/h (2 Bft) 98,37 %
15.10.2015 15:15 8,5 C 89 % 1010,8 hPa 0,0 l/m 3,6 km/h (1 Bft) W-NW 301 0 min 0,000 mm 0,0 UV-I 54 W/m 6,8 C 8,5 C 6,4 km/h (2 Bft) 99,11 %
15.10.2015 15:20 8,4 C 91 % 1010,3 hPa 0,0 l/m 3,4 km/h (1 Bft) W-NW 286 0 min 0,000 mm 0,0 UV-I 63 W/m 7,0 C 8,4 C 6,4 km/h (2 Bft) 99,13 %
15.10.2015 15:25 8,4 C 91 % 1010,6 hPa 0,0 l/m 2,6 km/h (1 Bft) W-SW 253 0 min 0,000 mm 0,0 UV-I 66 W/m 7,0 C 8,4 C 4,8 km/h (1 Bft) 100,00 %
15.10.2015 15:30 8,5 C 90 % 1011,0 hPa 0,0 l/m 2,0 km/h (1 Bft) W-SW 257 0 min 0,000 mm 0,0 UV-I 67 W/m 7,0 C 8,5 C 4,8 km/h (1 Bft) 98,21 %
15.10.2015 15:35 8,6 C 90 % 1011,0 hPa 0,0 l/m 2,1 km/h (1 Bft) W-NW 291 0 min 0,000 mm 0,0 UV-I 69 W/m 7,1 C 8,6 C 4,8 km/h (1 Bft) 99,12 %
15.10.2015 15:40 8,6 C 90 % 1010,9 hPa 0,0 l/m 2,1 km/h (1 Bft) W 275 0 min 0,000 mm 0,0 UV-I 85 W/m 7,1 C 8,6 C 6,4 km/h (2 Bft) 100,00 %
15.10.2015 15:45 8,6 C 90 % 1010,8 hPa 0,0 l/m 2,3 km/h (1 Bft) W 280 0 min 0,000 mm 0,0 UV-I 74 W/m 7,1 C 8,6 C 4,8 km/h (1 Bft) 98,21 %
15.10.2015 15:50 8,6 C 89 % 1010,7 hPa 0,0 l/m 1,4 km/h (1 Bft) SW 232 0 min 0,000 mm 0,0 UV-I 102 W/m 6,9 C 8,6 C 6,4 km/h (2 Bft) 99,10 %
15.10.2015 15:55 8,7 C 90 % 1010,8 hPa 0,0 l/m 2,7 km/h (1 Bft) W-SW 248 0 min 0,000 mm 0,0 UV-I 74 W/m 7,2 C 8,7 C 6,4 km/h (2 Bft) 100,00 %
15.10.2015 16:00 8,6 C 90 % 1010,8 hPa 0,0 l/m 4,0 km/h (1 Bft) W-SW 237 0 min 0,025 mm 0,0 UV-I 46 W/m 7,1 C 8,6 C 9,7 km/h (2 Bft) 100,00 %
15.10.2015 16:05 8,4 C 90 % 1010,7 hPa 0,0 l/m 3,8 km/h (1 Bft) S-SW 192 0 min 0,000 mm 0,0 UV-I 32 W/m 6,9 C 8,4 C 8,0 km/h (2 Bft) 98,26 %
15.10.2015 16:10 8,4 C 90 % 1010,9 hPa 0,0 l/m 3,0 km/h (1 Bft) W 281 0 min 0,000 mm 0,0 UV-I 26 W/m 6,9 C 8,4 C 9,7 km/h (2 Bft) 98,35 %
15.10.2015 16:15 8,3 C 90 % 1011,0 hPa 0,0 l/m 3,9 km/h (1 Bft) W 279 0 min 0,000 mm 0,0 UV-I 31 W/m 6,8 C 8,3 C 6,4 km/h (2 Bft) 97,44 %
15.10.2015 16:20 8,3 C 90 % 1011,0 hPa 0,0 l/m 5,4 km/h (1 Bft) W-NW 296 0 min 0,000 mm 0,0 UV-I 26 W/m 6,8 C 8,3 C 11,3 km/h (2 Bft) 99,11 %
15.10.2015 16:25 8,2 C 90 % 1011,0 hPa 0,0 l/m 5,0 km/h (1 Bft) W 263 0 min 0,000 mm 0,0 UV-I 26 W/m 6,7 C 8,2 C 12,9 km/h (3 Bft) 98,21 %
15.10.2015 16:30 8,2 C 90 % 1011,0 hPa 0,0 l/m 3,3 km/h (1 Bft) W-SW 257 0 min 0,000 mm 0,0 UV-I 28 W/m 6,7 C 8,2 C 8,0 km/h (2 Bft) 100,00 %
15.10.2015 16:35 8,2 C 90 % 1011,1 hPa 0,0 l/m 2,4 km/h (1 Bft) W 272 0 min 0,000 mm 0,0 UV-I 29 W/m 6,7 C 8,2 C 4,8 km/h (1 Bft) 100,00 %
15.10.2015 16:40 8,2 C 90 % 1011,1 hPa 0,0 l/m 2,8 km/h (1 Bft) NO 45 0 min 0,000 mm 0,0 UV-I 26 W/m 6,7 C 8,2 C 6,4 km/h (2 Bft) 99,17 %
15.10.2015 16:45 8,1 C 91 % 1011,1 hPa 0,0 l/m 2,4 km/h (1 Bft) SW 234 0 min 0,000 mm 0,0 UV-I 24 W/m 6,7 C 8,1 C 4,8 km/h (1 Bft) 100,00 %
15.10.2015 16:50 8,1 C 91 % 1011,1 hPa 0,0 l/m 4,1 km/h (1 Bft) W 277 0 min 0,000 mm 0,0 UV-I 24 W/m 6,7 C 8,1 C 9,7 km/h (2 Bft) 100,00 %
15.10.2015 16:55 8,1 C 91 % 1011,1 hPa 0,0 l/m 2,1 km/h (1 Bft) W 267 0 min 0,000 mm 0,0 UV-I 19 W/m 6,7 C 8,1 C 4,8 km/h (1 Bft) 100,00 %
15.10.2015 17:00 7,9 C 92 % 1011,1 hPa 0,0 l/m 4,0 km/h (1 Bft) W 270 0 min 0,026 mm 0,0 UV-I 20 W/m 6,7 C 7,9 C 11,3 km/h (2 Bft) 100,00 %
15.10.2015 17:05 7,8 C 92 % 1011,3 hPa 0,0 l/m 2,7 km/h (1 Bft) W 269 0 min 0,000 mm 0,0 UV-I 21 W/m 6,6 C 7,8 C 9,7 km/h (2 Bft) 99,13 %
15.10.2015 17:10 7,8 C 93 % 1011,3 hPa 0,0 l/m 3,8 km/h (1 Bft) W-SW 254 0 min 0,000 mm 0,0 UV-I 18 W/m 6,7 C 7,8 C 11,3 km/h (2 Bft) 99,10 %
15.10.2015 17:15 7,7 C 93 % 1011,4 hPa 0,0 l/m 4,4 km/h (1 Bft) SW 221 0 min 0,000 mm 0,0 UV-I 22 W/m 6,6 C 7,7 C 9,7 km/h (2 Bft) 100,00 %
15.10.2015 17:20 7,7 C 93 % 1011,4 hPa 0,0 l/m 3,8 km/h (1 Bft) W-NW 286 0 min 0,000 mm 0,0 UV-I 21 W/m 6,6 C 7,7 C 8,0 km/h (2 Bft) 100,00 %
15.10.2015 17:25 7,7 C 93 % 1011,4 hPa 0,0 l/m 3,3 km/h (1 Bft) W 273 0 min 0,000 mm 0,0 UV-I 22 W/m 6,6 C 7,7 C 6,4 km/h (2 Bft) 100,00 %
15.10.2015 17:30 7,7 C 94 % 1011,3 hPa 0,0 l/m 4,7 km/h (1 Bft) SW 232 0 min 0,000 mm 0,0 UV-I 22 W/m 6,8 C 7,7 C 9,7 km/h (2 Bft) 99,13 %
15.10.2015 17:35 7,6 C 94 % 1011,3 hPa 0,0 l/m 4,6 km/h (1 Bft) W-SW 254 0 min 0,000 mm 0,0 UV-I 25 W/m 6,7 C 7,6 C 9,7 km/h (2 Bft) 100,00 %
15.10.2015 17:40 7,6 C 94 % 1011,3 hPa 0,0 l/m 2,3 km/h (1 Bft) W 279 0 min 0,000 mm 0,0 UV-I 23 W/m 6,7 C 7,6 C 4,8 km/h (1 Bft) 100,00 %
15.10.2015 17:45 7,6 C 93 % 1011,3 hPa 0,0 l/m 4,6 km/h (1 Bft) W 265 0 min 0,000 mm 0,0 UV-I 20 W/m 6,5 C 7,6 C 11,3 km/h (2 Bft) 99,13 %
15.10.2015 17:50 7,6 C 94 % 1011,4 hPa 0,0 l/m 4,0 km/h (1 Bft) W-NW 288 0 min 0,000 mm 0,0 UV-I 18 W/m 6,7 C 7,6 C 9,7 km/h (2 Bft) 100,00 %
15.10.2015 17:55 7,6 C 94 % 1011,4 hPa 0,0 l/m 2,6 km/h (1 Bft) W-SW 258 0 min 0,000 mm 0,0 UV-I 13 W/m 6,7 C 7,6 C 6,4 km/h (2 Bft) 100,00 %
15.10.2015 18:00 7,6 C 94 % 1011,3 hPa 0,0 l/m 4,1 km/h (1 Bft) W 270 0 min 0,000 mm 0,0 UV-I 11 W/m 6,7 C 7,6 C 11,3 km/h (2 Bft) 100,00 %
15.10.2015 18:05 7,6 C 93 % 1011,3 hPa 0,0 l/m 4,7 km/h (1 Bft) W 269 5 min 0,000 mm 0,0 UV-I 11 W/m 6,5 C 7,6 C 9,7 km/h (2 Bft) 98,20 %
15.10.2015 18:10 7,6 C 92 % 1011,5 hPa 0,0 l/m 3,7 km/h (1 Bft) W 267 0 min 0,000 mm 0,0 UV-I 11 W/m 6,4 C 7,6 C 9,7 km/h (2 Bft) 99,11 %
15.10.2015 18:15 7,6 C 93 % 1011,4 hPa 0,0 l/m 3,3 km/h (1 Bft) W 271 0 min 0,000 mm 0,0 UV-I 13 W/m 6,5 C 7,6 C 12,9 km/h (3 Bft) 99,17 %
15.10.2015 18:20 7,6 C 93 % 1011,5 hPa 0,0 l/m 3,7 km/h (1 Bft) SW 229 0 min 0,000 mm 0,0 UV-I 15 W/m 6,5 C 7,6 C 9,7 km/h (2 Bft) 100,00 %
15.10.2015 18:25 7,6 C 93 % 1011,5 hPa 0,0 l/m 3,3 km/h (1 Bft) SW 234 0 min 0,000 mm 0,0 UV-I 11 W/m 6,5 C 7,6 C 6,4 km/h (2 Bft) 100,00 %
15.10.2015 18:30 7,6 C 92 % 1011,3 hPa 0,0 l/m 4,8 km/h (1 Bft) W 276 0 min 0,000 mm 0,0 UV-I 2 W/m 6,4 C 7,6 C 11,3 km/h (2 Bft) 99,19 %
15.10.2015 18:35 7,5 C 92 % 1011,4 hPa 0,0 l/m 4,0 km/h (1 Bft) W 267 0 min 0,000 mm 0,0 UV-I 0 W/m 6,3 C 7,5 C 6,4 km/h (2 Bft) 100,00 %
15.10.2015 18:40 7,5 C 93 % 1011,6 hPa 0,0 l/m 3,1 km/h (1 Bft) W 273 0 min 0,000 mm 0,0 UV-I 0 W/m 6,4 C 7,5 C 6,4 km/h (2 Bft) 100,00 %
15.10.2015 18:45 7,5 C 93 % 1011,6 hPa 0,0 l/m 4,2 km/h (1 Bft) W 264 0 min 0,000 mm 0,0 UV-I 0 W/m 6,4 C 7,5 C 11,3 km/h (2 Bft) 100,00 %
15.10.2015 18:50 7,5 C 93 % 1011,7 hPa 0,0 l/m 3,6 km/h (1 Bft) W 273 0 min 0,000 mm 0,0 UV-I 0 W/m 6,4 C 7,5 C 9,7 km/h (2 Bft) 100,00 %
15.10.2015 18:55 7,5 C 93 % 1011,8 hPa 0,0 l/m 3,1 km/h (1 Bft) W-SW 237 0 min 0,000 mm 0,0 UV-I 0 W/m 6,4 C 7,5 C 6,4 km/h (2 Bft) 100,00 %
15.10.2015 19:00 7,5 C 92 % 1011,9 hPa 0,0 l/m 2,9 km/h (1 Bft) W-SW 251 0 min 0,000 mm 0,0 UV-I 0 W/m 6,3 C 7,5 C 4,8 km/h (1 Bft) 100,00 %
15.10.2015 19:05 7,5 C 93 % 1012,0 hPa 0,0 l/m 2,9 km/h (1 Bft) W-NW 286 0 min 0,000 mm 0,0 UV-I 0 W/m 6,4 C 7,5 C 6,4 km/h (2 Bft) 100,00 %
15.10.2015 19:10 7,6 C 93 % 1012,0 hPa 0,0 l/m 3,0 km/h (1 Bft) S-SW 211 0 min 0,000 mm 0,0 UV-I 0 W/m 6,5 C 7,6 C 6,4 km/h (2 Bft) 99,06 %
15.10.2015 19:15 7,6 C 92 % 1012,1 hPa 0,0 l/m 3,8 km/h (1 Bft) SW 223 0 min 0,000 mm 0,0 UV-I 0 W/m 6,4 C 7,6 C 8,0 km/h (2 Bft) 100,00 %
15.10.2015 19:20 7,6 C 92 % 1012,2 hPa 0,0 l/m 3,5 km/h (1 Bft) SW 223 0 min 0,000 mm 0,0 UV-I 0 W/m 6,4 C 7,6 C 9,7 km/h (2 Bft) 99,11 %
15.10.2015 19:25 7,6 C 92 % 1012,2 hPa 0,0 l/m 3,8 km/h (1 Bft) W-SW 249 0 min 0,000 mm 0,0 UV-I 0 W/m 6,4 C 7,6 C 6,4 km/h (2 Bft) 100,00 %
15.10.2015 19:30 7,6 C 92 % 1012,2 hPa 0,0 l/m 4,1 km/h (1 Bft) W 277 0 min 0,000 mm 0,0 UV-I 0 W/m 6,4 C 7,6 C 11,3 km/h (2 Bft) 100,00 %
15.10.2015 19:35 7,6 C 92 % 1012,2 hPa 0,0 l/m 4,8 km/h (1 Bft) W 270 0 min 0,000 mm 0,0 UV-I 0 W/m 6,4 C 7,6 C 9,7 km/h (2 Bft) 100,00 %
15.10.2015 19:40 7,6 C 93 % 1012,2 hPa 0,0 l/m 4,8 km/h (1 Bft) W 270 0 min 0,000 mm 0,0 UV-I 0 W/m 6,5 C 7,6 C 12,9 km/h (3 Bft) 100,00 %
15.10.2015 19:45 7,5 C 93 % 1012,3 hPa 0,0 l/m 6,4 km/h (2 Bft) W 270 0 min 0,000 mm 0,0 UV-I 0 W/m 6,4 C 7,5 C 16,1 km/h (3 Bft) 100,00 %
15.10.2015 19:50 7,4 C 94 % 1012,4 hPa 0,0 l/m 6,4 km/h (2 Bft) W 270 0 min 0,000 mm 0,0 UV-I 0 W/m 6,5 C 7,4 C 16,1 km/h (3 Bft) 100,00 %
15.10.2015 19:55 7,3 C 94 % 1012,4 hPa 0,0 l/m 4,8 km/h (1 Bft) W 270 0 min 0,000 mm 0,0 UV-I 0 W/m 6,4 C 7,3 C 11,3 km/h (2 Bft) 100,00 %
15.10.2015 20:00 7,2 C 94 % 1012,6 hPa 0,0 l/m 9,7 km/h (2 Bft) W 281 0 min 0,000 mm 0,0 UV-I 0 W/m 6,3 C 4,7 C 12,9 km/h (3 Bft) 99,43 %
15.10.2015 20:05 7,2 C 95 % 1012,7 hPa 0,0 l/m 5,3 km/h (1 Bft) W 269 0 min 0,000 mm 0,0 UV-I 0 W/m 6,5 C 7,2 C 14,5 km/h (3 Bft) 99,16 %
15.10.2015 20:10 7,1 C 95 % 1012,5 hPa 0,0 l/m 5,5 km/h (1 Bft) W 272 0 min 0,000 mm 0,0 UV-I 0 W/m 6,4 C 7,1 C 12,9 km/h (3 Bft) 98,25 %
15.10.2015 20:15 7,1 C 95 % 1012,5 hPa 0,0 l/m 6,4 km/h (2 Bft) W 270 0 min 0,000 mm 0,0 UV-I 0 W/m 6,4 C 7,1 C 14,5 km/h (3 Bft) 100,00 %
15.10.2015 20:20 7,0 C 95 % 1012,7 hPa 0,0 l/m 7,1 km/h (2 Bft) W-NW 291 0 min 0,000 mm 0,0 UV-I 0 W/m 6,3 C 6,4 C 12,9 km/h (3 Bft) 99,57 %
15.10.2015 20:25 7,0 C 95 % 1012,8 hPa 0,0 l/m 4,1 km/h (1 Bft) W-SW 253 0 min 0,000 mm 0,0 UV-I 0 W/m 6,3 C 7,0 C 6,4 km/h (2 Bft) 99,08 %
15.10.2015 20:30 7,0 C 95 % 1012,8 hPa 0,0 l/m 4,2 km/h (1 Bft) NW 312 0 min 0,000 mm 0,0 UV-I 0 W/m 6,3 C 7,0 C 11,3 km/h (2 Bft) 99,22 %
15.10.2015 20:35 6,9 C 95 % 1012,7 hPa 0,0 l/m 4,0 km/h (1 Bft) W 269 0 min 0,000 mm 0,0 UV-I 0 W/m 6,2 C 6,9 C 6,4 km/h (2 Bft) 100,00 %
15.10.2015 20:40 6,9 C 94 % 1012,8 hPa 0,0 l/m 4,9 km/h (1 Bft) W 277 0 min 0,000 mm 0,0 UV-I 0 W/m 6,0 C 6,9 C 9,7 km/h (2 Bft) 99,12 %
15.10.2015 20:45 6,9 C 95 % 1012,9 hPa 0,0 l/m 2,9 km/h (1 Bft) W-NW 294 0 min 0,000 mm 0,0 UV-I 0 W/m 6,2 C 6,9 C 6,4 km/h (2 Bft) 100,00 %
15.10.2015 20:50 6,9 C 94 % 1012,9 hPa 0,0 l/m 4,0 km/h (1 Bft) W 277 0 min 0,000 mm 0,0 UV-I 0 W/m 6,0 C 6,9 C 6,4 km/h (2 Bft) 100,00 %
15.10.2015 20:55 6,9 C 95 % 1012,9 hPa 0,0 l/m 3,5 km/h (1 Bft) W 280 0 min 0,000 mm 0,0 UV-I 0 W/m 6,2 C 6,9 C 6,4 km/h (2 Bft) 99,12 %
15.10.2015 21:00 6,9 C 95 % 1012,9 hPa 0,0 l/m 3,4 km/h (1 Bft) W-NW 296 0 min 0,000 mm 0,0 UV-I 0 W/m 6,2 C 6,9 C 4,8 km/h (1 Bft) 99,13 %
15.10.2015 21:05 6,9 C 95 % 1012,9 hPa 0,0 l/m 3,3 km/h (1 Bft) W 281 0 min 0,000 mm 0,0 UV-I 0 W/m 6,2 C 6,9 C 9,7 km/h (2 Bft) 98,47 %
15.10.2015 21:10 6,9 C 95 % 1012,9 hPa 0,0 l/m 3,3 km/h (1 Bft) SW 219 0 min 0,000 mm 0,0 UV-I 0 W/m 6,2 C 6,9 C 6,4 km/h (2 Bft) 99,03 %
15.10.2015 21:15 6,9 C 95 % 1012,9 hPa 0,0 l/m 4,6 km/h (1 Bft) S-SW 203 0 min 0,000 mm 0,0 UV-I 0 W/m 6,2 C 6,9 C 11,3 km/h (2 Bft) 100,00 %
15.10.2015 21:20 6,9 C 95 % 1013,0 hPa 0,0 l/m 3,8 km/h (1 Bft) W-NW 284 0 min 0,000 mm 0,0 UV-I 0 W/m 6,2 C 6,9 C 6,4 km/h (2 Bft) 99,00 %
15.10.2015 21:25 6,9 C 95 % 1013,0 hPa 0,0 l/m 3,7 km/h (1 Bft) W 267 0 min 0,000 mm 0,0 UV-I 0 W/m 6,2 C 6,9 C 9,7 km/h (2 Bft) 100,00 %
15.10.2015 21:30 6,9 C 94 % 1013,0 hPa 0,0 l/m 4,3 km/h (1 Bft) W-SW 243 0 min 0,000 mm 0,0 UV-I 0 W/m 6,0 C 6,9 C 12,9 km/h (3 Bft) 99,19 %
15.10.2015 21:35 6,9 C 94 % 1013,0 hPa 0,0 l/m 5,2 km/h (1 Bft) W-NW 284 0 min 0,000 mm 0,0 UV-I 0 W/m 6,0 C 6,9 C 12,9 km/h (3 Bft) 99,06 %
15.10.2015 21:40 6,9 C 94 % 1013,1 hPa 0,0 l/m 4,2 km/h (1 Bft) W 263 0 min 0,000 mm 0,0 UV-I 0 W/m 6,0 C 6,9 C 9,7 km/h (2 Bft) 100,00 %
15.10.2015 21:45 6,9 C 94 % 1013,2 hPa 0,0 l/m 2,9 km/h (1 Bft) W 262 0 min 0,000 mm 0,0 UV-I 0 W/m 6,0 C 6,9 C 6,4 km/h (2 Bft) 100,00 %
15.10.2015 21:50 6,9 C 94 % 1013,2 hPa 0,0 l/m 3,0 km/h (1 Bft) W 270 0 min 0,000 mm 0,0 UV-I 0 W/m 6,0 C 6,9 C 6,4 km/h (2 Bft) 98,25 %
15.10.2015 21:55 6,9 C 94 % 1013,2 hPa 0,0 l/m 2,6 km/h (1 Bft) W-NW 290 0 min 0,000 mm 0,0 UV-I 0 W/m 6,0 C 6,9 C 6,4 km/h (2 Bft) 98,31 %
15.10.2015 22:00 6,9 C 94 % 1013,3 hPa 0,0 l/m 2,8 km/h (1 Bft) W 269 0 min 0,000 mm 0,0 UV-I 0 W/m 6,0 C 6,9 C 6,4 km/h (2 Bft) 98,35 %
15.10.2015 22:05 6,9 C 93 % 1013,4 hPa 0,0 l/m 3,4 km/h (1 Bft) W 275 0 min 0,000 mm 0,0 UV-I 0 W/m 5,8 C 6,9 C 9,7 km/h (2 Bft) 99,10 %
15.10.2015 22:10 6,9 C 93 % 1013,4 hPa 0,0 l/m 3,2 km/h (1 Bft) W-NW 303 0 min 0,000 mm 0,0 UV-I 0 W/m 5,8 C 6,9 C 8,0 km/h (2 Bft) 98,39 %
15.10.2015 22:15 6,9 C 93 % 1013,4 hPa 0,0 l/m 4,3 km/h (1 Bft) W 261 0 min 0,000 mm 0,0 UV-I 0 W/m 5,8 C 6,9 C 6,4 km/h (2 Bft) 100,00 %
15.10.2015 22:20 6,9 C 93 % 1013,3 hPa 0,0 l/m 4,4 km/h (1 Bft) SW 227 0 min 0,000 mm 0,0 UV-I 0 W/m 5,8 C 6,9 C 9,7 km/h (2 Bft) 100,00 %
15.10.2015 22:25 6,9 C 93 % 1013,4 hPa 0,0 l/m 3,6 km/h (1 Bft) W-SW 257 0 min 0,000 mm 0,0 UV-I 0 W/m 5,8 C 6,9 C 6,4 km/h (2 Bft) 99,19 %
15.10.2015 22:30 6,9 C 93 % 1013,6 hPa 0,0 l/m 2,9 km/h (1 Bft) W 266 0 min 0,000 mm 0,0 UV-I 0 W/m 5,8 C 6,9 C 6,4 km/h (2 Bft) 100,00 %
15.10.2015 22:35 6,9 C 93 % 1013,7 hPa 0,0 l/m 3,2 km/h (1 Bft) SW 218 0 min 0,000 mm 0,0 UV-I 0 W/m 5,8 C 6,9 C 9,7 km/h (2 Bft) 99,11 %
15.10.2015 22:40 6,9 C 92 % 1013,7 hPa 0,0 l/m 3,7 km/h (1 Bft) W-SW 253 0 min 0,000 mm 0,0 UV-I 0 W/m 5,7 C 6,9 C 8,0 km/h (2 Bft) 99,13 %
15.10.2015 22:45 6,9 C 92 % 1013,7 hPa 0,0 l/m 3,9 km/h (1 Bft) W-SW 250 0 min 0,000 mm 0,0 UV-I 0 W/m 5,7 C 6,9 C 9,7 km/h (2 Bft) 99,19 %
15.10.2015 22:50 6,9 C 92 % 1013,7 hPa 0,0 l/m 3,4 km/h (1 Bft) W-NW 284 0 min 0,000 mm 0,0 UV-I 0 W/m 5,7 C 6,9 C 6,4 km/h (2 Bft) 99,15 %
15.10.2015 22:55 6,9 C 92 % 1013,7 hPa 0,0 l/m 2,2 km/h (1 Bft) SW 232 0 min 0,000 mm 0,0 UV-I 0 W/m 5,7 C 6,9 C 8,0 km/h (2 Bft) 100,00 %
15.10.2015 23:00 6,9 C 92 % 1013,7 hPa 0,0 l/m 3,2 km/h (1 Bft) W 276 0 min 0,000 mm 0,0 UV-I 0 W/m 5,7 C 6,9 C 8,0 km/h (2 Bft) 100,00 %
15.10.2015 23:05 6,9 C 92 % 1013,7 hPa 0,0 l/m 2,1 km/h (1 Bft) W 260 0 min 0,000 mm 0,0 UV-I 0 W/m 5,7 C 6,9 C 4,8 km/h (1 Bft) 99,19 %
15.10.2015 23:10 6,9 C 91 % 1013,8 hPa 0,0 l/m 2,9 km/h (1 Bft) W 271 0 min 0,000 mm 0,0 UV-I 0 W/m 5,5 C 6,9 C 6,4 km/h (2 Bft) 99,15 %
15.10.2015 23:15 6,8 C 92 % 1013,9 hPa 0,0 l/m 2,1 km/h (1 Bft) W-NW 292 0 min 0,000 mm 0,0 UV-I 0 W/m 5,6 C 6,8 C 6,4 km/h (2 Bft) 99,08 %
15.10.2015 23:20 6,8 C 91 % 1014,0 hPa 0,0 l/m 2,7 km/h (1 Bft) W 271 0 min 0,000 mm 0,0 UV-I 0 W/m 5,4 C 6,8 C 6,4 km/h (2 Bft) 99,19 %
15.10.2015 23:25 6,8 C 91 % 1013,9 hPa 0,0 l/m 2,6 km/h (1 Bft) W 269 0 min 0,000 mm 0,0 UV-I 0 W/m 5,4 C 6,8 C 6,4 km/h (2 Bft) 100,00 %
15.10.2015 23:30 6,8 C 91 % 1013,9 hPa 0,0 l/m 2,4 km/h (1 Bft) W-NW 284 0 min 0,000 mm 0,0 UV-I 0 W/m 5,4 C 6,8 C 4,8 km/h (1 Bft) 100,00 %
15.10.2015 23:35 6,7 C 91 % 1013,9 hPa 0,0 l/m 2,8 km/h (1 Bft) W 279 0 min 0,000 mm 0,0 UV-I 0 W/m 5,3 C 6,7 C 6,4 km/h (2 Bft) 100,00 %
15.10.2015 23:40 6,7 C 91 % 1014,0 hPa 0,0 l/m 1,6 km/h (1 Bft) W-SW 238 0 min 0,000 mm 0,0 UV-I 0 W/m 5,3 C 6,7 C 4,8 km/h (1 Bft) 98,41 %
15.10.2015 23:45 6,7 C 91 % 1014,2 hPa 0,0 l/m 1,9 km/h (1 Bft) W 269 0 min 0,000 mm 0,0 UV-I 0 W/m 5,3 C 6,7 C 4,8 km/h (1 Bft) 100,00 %
15.10.2015 23:50 6,7 C 91 % 1014,1 hPa 0,0 l/m 3,0 km/h (1 Bft) N-NW 337 0 min 0,000 mm 0,0 UV-I 0 W/m 5,3 C 6,7 C 6,4 km/h (2 Bft) 99,08 %
15.10.2015 23:55 6,7 C 91 % 1014,1 hPa 0,0 l/m 2,6 km/h (1 Bft) W 271 0 min 0,000 mm 0,0 UV-I 0 W/m 5,3 C 6,7 C 6,4 km/h (2 Bft) 100,00 %
_ Min-Zeit 00:45 14:40 07:45 - 04:05 - - - - - - 23:35 20:00 04:05 02:05
Minimum _ 6,5 C 88 % 1009,3 hPa - 0,0 km/h (0 Bft) - - - - - - 5,3 C 4,7 C 0,0 km/h (0 Bft) 95,83 %
_ Max-Zeit 14:35 02:30 23:45 01:45 20:00 - - 18:05 13:00 12:40 12:40 13:30 14:35 19:45 00:00
Maximum _ 9,2 C 97 % 1014,2 hPa 0,2 l/m 9,7 km/h
W (2 Bft)
- - 5 min 0,076 mm 1,6 UV-I 288 W/m 7,5 C 9,2 C 16,1 km/h
W (3 Bft)
100,00 %
Durchschnitt _ 7,3 C 94 % 1011,2 hPa #1,4 l/m 2,5 km/h (1 Bft) W - #5 min. #0,356 mm 0,8 UV-I 76 W/m 6,4 C 7,3 C 6,1 km/h (2 Bft) 99,33 %